Карточка аэропорта UWLW

Внимание!
Информация на этой странице в стадии наполнения.
Если вы не увидели какой-то информации, или заметили неточность - пожалуйста сообщите нам!
Спасибо!
Команда RU-STAFF
Название аэропортаВосточный
Название аэропорта (англ.)Vostochny
Превышение252 ft. (76.8 m.)
Координаты54°24', 48°48'
Высота перехода900m
Эшелон переходаQFE>=726mm:FL050; QFE<726:FL060
Коды ответчика6725-6727
Зона ОрВДСамара РПИ (UWWW)
Данные METARUWLW 230500Z 02007MPS CAVOK 14/M02 Q1025 R02/CLRD60 NOSIG RMK QFE762/1016
Проноз погоды (TAF)UWLW 230151Z 2303/2403 04006MPS 9999 BKN020 TX15/2312Z TN03/2402Z TEMPO 2303/2315 01007G13MPS
NOTAMshow/hide NOTAM
AWOS   TABLE

Информация о ВПП

ВПП Длина ВПП (м.) Покрытие Курс ВПП Частота ILS
025000Железобетон20110.1
205000Железобетон200110.1

Диспетчерские позиции


Сценарии



Спутниковое изображение